Tracking 29892 objects as of 21-Nov-2024
HD Live streaming from Space Station
objects crossing your sky now

COSMOS 2143 DEB

Track COSMOS 2143 DEB now!
10-day predictions


NORAD ID: 57725
Int'l Code: 1991-033N
Perigee: 1,356.1 km
Apogee: 1,507.8 km
Inclination: 82.8 °
Period: 114.3 minutes
Semi major axis: 7802 km
RCS: Unknown
Launch date: May 16, 1991
Source: Commonwealth of Independent States (former USSR) (CIS)
Launch site: PLESETSK MISSILE AND SPACE COMPLEX (PKMTR)

Note: This is SATELLITE DEBRIS
Your satellite tracking list
Your tracking list is empty




NASA's NSSDC Master Catalog

Two Line Element Set (TLE):
1 57725U 91033N   24325.46604233  .00002240  00000-0  12705-1 0  9990
2 57725  82.8235 324.0663 0097208 275.1440  83.8562 12.59557916 61817
Source of the keplerian elements: AFSPC